Regional Weather Roundup
Issued by NWS

Home | Current Version | Previous Version | Graphics & Text | Print | Product List | Glossary On
Versions: 1 2 3 4 5 6 7 8 9 10 11 12 13 14 15 16 17 18 19 20 21 22 23 24 25 26 27 28 29 30 31 32 33 34 35 36 37 38 39 40 41 42 43 44 45 46 47 48 49 50
984
ASUS45 KBOU 210907
RWRCO

WEATHER ROUNDUP FOR COLORADO
NATIONAL WEATHER SERVICE DENVER/BOULDER CO
300 AM MDT THU SEP 21 2017

NOTE: "FAIR" INDICATES FEW OR NO CLOUDS BELOW 12000 FEET WITH NO
SIGNIFICANT WEATHER AND/OR OBSTRUCTIONS TO VISIBILITY.

COZ001>005-013-030-031-211000-
...NORTHWEST COLORADO...

CITY           SKY/WX    TMP DP  RH WIND       PRES   REMARKS
CRAIG          FAIR      44  34  67 E3        29.82R
HAYDEN         FAIR      63  27  25 VRB7      29.86S
MEEKER         FAIR      50  30  46 CALM      29.84S
RABBIT EARS PA FAIR      46  25  42 S10G29    30.08S
STEAMBOAT SPGS FAIR      43  34  71 SE3       29.87S
WALDEN         FAIR      39  27  60 SE10      29.95S
$$

COZ006>008-011-211000-
...WEST CENTRAL VALLEYS...

CITY           SKY/WX    TMP DP  RH WIND       PRES   REMARKS
GRAND JUNCTION FAIR      71  31  22 SE17      29.79R
MONTROSE       FAIR      68  27  21 S17G23    29.93R
EAGLE          FAIR      52  27  38 E10       29.91F
RIFLE          FAIR      60  29  30 CALM      29.82S
DELTA          FAIR      64  30  28 NE5       29.90R
NUCLA          FAIR      64  32  29 S7G21     29.98S
$$

COZ017>023-064>068-211000-
...SOUTHWEST COLORADO...

CITY           SKY/WX    TMP DP  RH WIND       PRES   REMARKS
DURANGO        FAIR      43  30  60 CALM      30.07S
CORTEZ         FAIR      50  33  52 NE5       30.00S
PAGOSA SPRINGS FAIR      44  26  49 CALM      30.14F
TELLURIDE      FAIR      55  26  33 S10G17    30.16F
WOLF CREEK PAS FAIR      36  25  64 S31G41    30.32F
$$

COZ009-010-012-014-032>034-037-058>063-211000-
...CENTRAL COLORADO...

CITY           SKY/WX    TMP DP  RH WIND       PRES   REMARKS
ASPEN          FAIR      51  27  39 S15       29.98F
BUENA VISTA    FAIR      51  22  31 S6        30.04F
COPPER MTN     FAIR      45  18  33 S23       30.24F
BERTHOUD PASS  FAIR      37  30  75 SW20G39   30.23F
COTTONWOOD PAS FAIR      59  19  21 SW9G17    30.14F
GUNNISON       FAIR      35  31  85 CALM      30.09R
KREMMLING      FAIR      43  28  56 CALM      29.94F
LEADVILLE      FAIR      40  19  43 E6        30.12F
MONARCH PASS   FAIR      41  19  42 SW31      30.38F
SALIDA         FAIR      61  22  22 S13G20    30.10S
SUNLIGHT       FAIR      41  25  52 S17G33    30.16F
WILKERSON PASS FAIR      43  19  39 S13G29    30.21F
$$

COZ069>075-211000-
...SAN LUIS VALLEY/SANGRE DE CRISTO MOUNTAINS...

CITY           SKY/WX    TMP DP  RH WIND       PRES   REMARKS
ALAMOSA        FAIR      41  27  57 S8        30.09F
DEL NORTE      FAIR      38  24  55 W5        30.11F
LA VETA PASS   FAIR      48  23  37 S20G44    30.28F
SAGUACHE       FAIR      41  30  65 CALM      30.11F
$$

COZ035-036-038>040-211000-
...NORTHERN COLORADO FRONT RANGE...

CITY           SKY/WX    TMP DP  RH WIND       PRES   REMARKS
DENVER INTL AP FAIR      62  29  28 SW14      29.80F
DMNS CITY PARK   N/A     62  29  29 SW6       29.80F
AURORA         CLEAR     62  29  28 S14       29.83F
FRONT RANGE AP FAIR      66  30  26 S16G30    29.83R
ERIE MUNI ARPT FAIR      42  35  74 CALM      29.85F
BOULDER MUN AP FAIR      52  37  58 SW3       29.80F
CENTENNIAL     FAIR      57  31  37 S10       29.85F
BROOMFIELD     FAIR      57  32  38 CALM      29.82F
FORT COLLINS   FAIR      48  36  63 N7        29.80F
LONGMONT       FAIR      46  37  71 SW5       29.82F
$$

COZ041-046-047-076>085-087-088-211000-
...PIKES PEAK/PALMER DIVIDE AND SOUTHERN FOOTHILLS...

CITY           SKY/WX    TMP DP  RH WIND       PRES   REMARKS
COLO. SPRINGS  FAIR      46  35  65 NE7       29.93F
A. F. ACADEMY  FAIR      42  32  68 N5        29.93F
SCHRIEVER AFB  FAIR      49  35  58 N6        29.93F
CHEYENNE MTN   FAIR      56  29  36 W3        29.90F
ELLICOTT         N/A    N/A N/A N/A CALM      29.91F
FALCON         FAIR      46  33  59 CALM      29.96F
FORT CARSON    FAIR      44  34  68 NW6       29.89F
LIMON          FAIR      35  31  85 CALM      29.88F
MONUMENT HILL  FAIR      46  28  49 S6        29.96F
CANON CITY     CLEAR     46  34  61 CALM      29.89S
WALSENBURG     FAIR      61  25  25 SW14      29.94S
TRINIDAD       FAIR      56  35  45 SW7       29.94F
$$

COZ042>045-048>051-090-091-211000-
...NORTHEAST COLORADO...

CITY           SKY/WX    TMP DP  RH WIND       PRES   REMARKS
GREELEY ARPT   FAIR      47  37  68 CALM      29.79F
AKRON          FAIR      50  34  54 SE13      29.80F
BURLINGTON     FAIR      58  41  53 S17       29.83F
WRAY           FAIR      54  37  54 E7        29.82F
YUMA           FAIR      45  36  70 SE3       29.80F
STERLING       FAIR      48  36  61 SE8       29.78F
HOLYOKE        NOT AVBL
FORT MORGAN    FAIR      48  33  56 E8        29.79F
$$

COZ086-089-092>099-211000-
...SOUTHEAST COLORADO...

CITY           SKY/WX    TMP DP  RH WIND       PRES   REMARKS
PUEBLO         FAIR      46  33  60 NE6       29.86F
LA JUNTA       FAIR      53  40  61 CALM      29.84F
LAMAR          FAIR      49  39  68 E7        29.81F
SPRINGFIELD      N/A     49  44  83 SW8       29.89F
$$




USA.gov is the U.S. government's official web portal to all federal, state and local government web resources and services.